Latest Weather Observations for Fort Denison

IDN60901

Issued at 10:05 am EST Wednesday 3 September 2014 (issued every 10 minutes, with the page automatically refreshed every 10 minutes)

About weather observations | Map of Sydney area stations | Latest observations for Sydney area | Other Formats
Station Details ID: 066022 Name: FORT DENISON Lat: -33.86 Lon: 151.23 Height: 5.0 m
Data from the previous 72 hours. | See also: Recent months for locations in New South Wales
Date/Time
EST
Tmp

°C
App
Tmp
°C
Dew
Point
°C
Rel
Hum
%
Delta-T

°C
Wind Press
QNH
hPa
Press
MSL
hPa
Rain
since
9 am
mm
Dir
 
Spd
km/h
Gust
km/h
Spd
kts
Gust
kts
03/10:00am - - - - - SSW 33 59 18 32 - - -
03/09:30am - - - - - SSW 35 56 19 30 - - -
03/09:00am - - - - - SSW 28 48 15 26 - - -
03/08:32am - - - - - SW 28 54 15 29 - - -
03/08:30am - - - - - SW 24 46 13 25 - - -
03/08:15am - - - - - SW 28 50 15 27 - - -
03/08:00am - - - - - WSW 20 35 11 19 - - -
03/07:30am - - - - - W 24 41 13 22 - - -
03/07:00am - - - - - W 26 35 14 19 - - -
03/06:30am - - - - - WSW 22 41 12 22 - - -
03/06:00am - - - - - W 24 35 13 19 - - -
03/05:31am - - - - - SW 28 65 15 35 - - -
03/05:30am - - - - - SW 24 50 13 27 - - -
03/05:00am - - - - - WSW 24 46 13 25 - - -
03/04:30am - - - - - SW 32 57 17 31 - - -
03/04:01am - - - - - SW 28 46 15 25 - - -
03/04:00am - - - - - SW 30 46 16 25 - - -
03/03:31am - - - - - SW 28 57 15 31 - - -
03/03:30am - - - - - SW 26 57 14 31 - - -
03/03:00am - - - - - WSW 22 41 12 22 - - -
03/02:30am - - - - - WSW 22 39 12 21 - - -
03/02:00am - - - - - WSW 20 44 11 24 - - -
03/01:30am - - - - - WSW 17 24 9 13 - - -
03/01:00am - - - - - W 24 41 13 22 - - -
03/12:30am - - - - - WSW 28 48 15 26 - - -
03/12:12am - - - - - W 30 48 16 26 - - -
03/12:00am - - - - - W 32 46 17 25 - - -
 
Date/Time
EST
Tmp

°C
App
Tmp
°C
Dew
Point
°C
Rel
Hum
%
Delta-T

°C
Wind Press
QNH
hPa
Press
MSL
hPa
Rain
since
9 am
mm
Dir
 
Spd
km/h
Gust
km/h
Spd
kts
Gust
kts
02/11:30pm - - - - - W 28 43 15 23 - - -
02/11:00pm - - - - - W 32 52 17 28 - - -
02/10:30pm - - - - - WSW 28 50 15 27 - - -
02/10:14pm - - - - - W 30 52 16 28 - - -
02/10:00pm - - - - - WSW 26 44 14 24 - - -
02/09:35pm - - - - - WSW 28 48 15 26 - - -
02/09:30pm - - - - - SW 26 48 14 26 - - -
02/09:00pm - - - - - SW 26 43 14 23 - - -
02/08:54pm - - - - - SW 28 57 15 31 - - -
02/08:30pm - - - - - SW 22 37 12 20 - - -
02/08:00pm - - - - - SSW 19 28 10 15 - - -
02/07:30pm - - - - - SSW 15 26 8 14 - - -
02/07:00pm - - - - - SSW 17 28 9 15 - - -
02/06:30pm - - - - - SW 22 35 12 19 - - -
02/06:00pm - - - - - WSW 19 28 10 15 - - -
02/05:30pm - - - - - W 20 32 11 17 - - -
02/05:00pm - - - - - WSW 17 37 9 20 - - -
02/04:30pm - - - - - W 15 22 8 12 - - -
02/04:00pm - - - - - SSW 15 22 8 12 - - -
02/03:30pm - - - - - SSW 15 26 8 14 - - -
02/03:00pm - - - - - S 22 35 12 19 - - -
02/02:30pm - - - - - S 24 39 13 21 - - -
02/02:00pm - - - - - SSW 17 28 9 15 - - -
02/01:30pm - - - - - S 22 33 12 18 - - -
02/01:00pm - - - - - S 22 39 12 21 - - -
02/12:30pm - - - - - S 11 15 6 8 - - -
02/12:00pm - - - - - SW 17 24 9 13 - - -
02/11:30am - - - - - SW 13 22 7 12 - - -
02/11:00am - - - - - SW 19 33 10 18 - - -
02/10:30am - - - - - WSW 15 28 8 15 - - -
02/10:00am - - - - - WSW 6 9 3 5 - - -
02/09:30am - - - - - WNW 9 15 5 8 - - -
02/09:00am - - - - - W 7 9 4 5 - - -
02/08:30am - - - - - WSW 7 11 4 6 - - -
02/08:00am - - - - - W 11 15 6 8 - - -
02/07:30am - - - - - W 17 19 9 10 - - -
02/07:00am - - - - - W 17 19 9 10 - - -
02/06:30am - - - - - W 15 20 8 11 - - -
02/06:00am - - - - - W 22 30 12 16 - - -
02/05:30am - - - - - W 20 32 11 17 - - -
02/05:00am - - - - - W 24 32 13 17 - - -
02/04:30am - - - - - W 20 26 11 14 - - -
02/04:00am - - - - - W 22 35 12 19 - - -
02/03:30am - - - - - W 15 19 8 10 - - -
02/03:00am - - - - - WNW 4 9 2 5 - - -
02/02:30am - - - - - N 9 13 5 7 - - -
02/02:00am - - - - - NNW 9 9 5 5 - - -
02/01:30am - - - - - WNW 4 7 2 4 - - -
02/01:00am - - - - - NNW 2 7 1 4 - - -
02/12:30am - - - - - SE 4 6 2 3 - - -
02/12:00am - - - - - N 6 7 3 4 - - -
 
Date/Time
EST
Tmp

°C
App
Tmp
°C
Dew
Point
°C
Rel
Hum
%
Delta-T

°C
Wind Press
QNH
hPa
Press
MSL
hPa
Rain
since
9 am
mm
Dir
 
Spd
km/h
Gust
km/h
Spd
kts
Gust
kts
01/11:30pm - - - - - NNW 9 11 5 6 - - -
01/11:00pm - - - - - NNW 9 13 5 7 - - -
01/10:30pm - - - - - NNW 13 17 7 9 - - -
01/10:00pm - - - - - NNW 7 17 4 9 - - -
01/09:30pm - - - - - NNW 17 26 9 14 - - -
01/09:00pm - - - - - NNW 20 28 11 15 - - -
01/08:30pm - - - - - NNW 15 20 8 11 - - -
01/08:00pm - - - - - NNW 13 19 7 10 - - -
01/07:30pm - - - - - NNW 9 13 5 7 - - -
01/07:00pm - - - - - ENE 4 4 2 2 - - -
01/06:30pm - - - - - SSW 2 6 1 3 - - -
01/06:00pm - - - - - NNE 13 17 7 9 - - -
01/05:30pm - - - - - NNE 17 22 9 12 - - -
01/05:00pm - - - - - NNE 17 22 9 12 - - -
01/04:30pm - - - - - NNE 17 26 9 14 - - -
01/04:00pm - - - - - NE 13 17 7 9 - - -
01/03:30pm - - - - - E 17 19 9 10 - - -
01/03:00pm - - - - - E 13 17 7 9 - - -
01/02:30pm - - - - - E 20 22 11 12 - - -
01/02:00pm - - - - - E 17 19 9 10 - - -
01/01:30pm - - - - - E 17 20 9 11 - - -
01/01:00pm - - - - - E 11 13 6 7 - - -
01/12:30pm - - - - - E 11 13 6 7 - - -
01/12:00pm - - - - - E 13 13 7 7 - - -
01/11:30am - - - - - E 11 13 6 7 - - -
01/11:00am - - - - - E 2 4 1 2 - - -
01/10:30am - - - - - W 4 6 2 3 - - -
01/10:00am - - - - - W 9 11 5 6 - - -
01/09:30am - - - - - W 11 13 6 7 - - -
01/09:00am - - - - - WNW 13 17 7 9 - - -
01/08:30am - - - - - W 19 22 10 12 - - -
01/08:00am - - - - - W 13 15 7 8 - - -
01/07:30am - - - - - W 13 17 7 9 - - -
01/07:00am - - - - - WNW 11 13 6 7 - - -
01/06:30am - - - - - WNW 13 15 7 8 - - -
01/06:00am - - - - - W 15 19 8 10 - - -
01/05:30am - - - - - W 13 17 7 9 - - -
01/05:00am - - - - - WNW 11 13 6 7 - - -
01/04:30am - - - - - WNW 11 13 6 7 - - -
01/04:00am - - - - - WNW 6 9 3 5 - - -
01/03:30am - - - - - W 13 15 7 8 - - -
01/03:00am - - - - - W 17 19 9 10 - - -
01/02:30am - - - - - WNW 11 13 6 7 - - -
01/02:00am - - - - - WNW 6 9 3 5 - - -
01/01:30am - - - - - W 9 11 5 6 - - -
01/01:00am - - - - - WNW 9 9 5 5 - - -
01/12:30am - - - - - WNW 4 6 2 3 - - -
01/12:00am - - - - - W 11 13 6 7 - - -
 
Date/Time
EST
Tmp

°C
App
Tmp
°C
Dew
Point
°C
Rel
Hum
%
Delta-T

°C
Wind Press
QNH
hPa
Press
MSL
hPa
Rain
since
9 am
mm
Dir
 
Spd
km/h
Gust
km/h
Spd
kts
Gust
kts
31/11:30pm - - - - - WNW 9 11 5 6 - - -
31/11:00pm - - - - - W 9 13 5 7 - - -
31/10:30pm - - - - - W 17 19 9 10 - - -
31/10:00pm - - - - - W 13 15 7 8 - - -
31/09:30pm - - - - - N 2 6 1 3 - - -
31/09:00pm - - - - - NE 2 4 1 2 - - -
31/08:30pm - - - - - SW 2 2 1 1 - - -
31/08:00pm - - - - - N 2 4 1 2 - - -
31/07:30pm - - - - - NNE 4 6 2 3 - - -
31/07:00pm - - - - - E 6 7 3 4 - - -
31/06:30pm - - - - - E 9 11 5 6 - - -
31/06:00pm - - - - - E 11 15 6 8 - - -
31/05:30pm - - - - - ESE 13 17 7 9 - - -
31/05:00pm - - - - - ESE 15 17 8 9 - - -
31/04:30pm - - - - - ESE 15 19 8 10 - - -
31/04:00pm - - - - - ESE 13 17 7 9 - - -
31/03:30pm - - - - - ESE 17 19 9 10 - - -
31/03:00pm - - - - - ESE 15 19 8 10 - - -
31/02:30pm - - - - - ESE 15 19 8 10 - - -
31/02:00pm - - - - - ESE 15 19 8 10 - - -
31/01:30pm - - - - - ESE 17 19 9 10 - - -
31/01:00pm - - - - - E 13 17 7 9 - - -
31/12:30pm - - - - - E 6 7 3 4 - - -
31/12:00pm - - - - - NW 6 7 3 4 - - -
31/11:30am - - - - - WSW 6 9 3 5 - - -
31/11:00am - - - - - WSW 9 22 5 12 - - -
31/10:30am - - - - - W 9 17 5 9 - - -

Latest Capital City Observations: Canberra | Sydney | Melbourne | Brisbane | Adelaide | Perth | Hobart | Darwin

Other Formats:

Comma delimited format used in spreadsheet applications
http://www.bom.gov.au/fwo/IDN60901/IDN60901.94769.axf

JavaScript Object Notation format (JSON) in row-major order
http://www.bom.gov.au/fwo/IDN60901/IDN60901.94769.json